Location: *
(55.6049°S, 142.1985°W)
Time: 00:33:04
(UTC+00:00)

Cosmos 1891 Rocket - Pass Details

Date: 12 May 2021
Orbit: 933 x 1019 km, 82.9° (Epoch: 18 June)

Event Time Altitude Azimuth Distance (km) Brightness Sun altitude
Exits shadow 14:29:05 16° 334° (NNW) 2,305 6.2 -22.9°
Maximum altitude 14:34:09 65° 254° (WSW) 1,074 4.4 -22.2°
Drops below altitude 10° 14:40:30 10° 172° (S) 2,782 7.0 -21.3°
Sets 14:43:07 0° 168° (SSE) 3,749 7.7 -20.9°
